sat.trackr.live / text

‹ back to catalog

ONEWEB-0505

NORAD 54123 · 2022-138L

PAYLOAD ACTIVE UNKNOWN

§ Identity

Operator
Country
UK
Launch date
2022-10-22
Launch site
SRILR
Launch vehicle
Mass (kg)
RCS (m²)

Purposes: comms

External: N2YO · Heavens-Above · Gunter

§ Orbital elements

Epoch: 2026-09-20T01:08:44.621952Z

Period
109.11 min
Inclination
87.9106°
Eccentricity
0.0002068
Mean motion
13.19726053 rev/d
Perigee alt
1,184.2 km
Apogee alt
1,187.3 km
Semi-major
7,563.9 km
B*
-1.0480e-4
RAAN
286.0690°
Arg perigee
79.4484°
Mean anomaly
280.6881°
Rev number
18,932

§ Raw data

ONEWEB-05051 54123U 22138L   26263.04773868 -.00000029  00000+0 -10480-3 0  99912 54123  87.9106 286.0690 0002068  79.4484 280.6881 13.19726053189324

JSON: /api/v1/satellites/54123 · /tle

For live sub-satellite position, see the globe view (requires WebGL).

§ Visibility from observer

Set your observer location to see the next 7 days of passes ≥ 10°. The values pass through the URL so the page stays shareable.

No JS? Fill the form by hand. The geolocation button needs JavaScript.